Location: Ambras
(47.2500°N, 11.4167°E)
Time: 12:10:34
(UTC+00:00)

Daily predictions for brighter satellites

Satellite Brightness Start Highest point End
(mag) Time Altitude Azimuth Time Altitude Azimuth Time Altitude Azimuth
H-2A R/B 4.3 19:46:49 10° SSW 19:50:05 27° W 19:53:24 10° NW
Cosmos 2082 Rocket 3.9 19:47:13 10° SE 19:50:13 15° E 19:53:12 10° ENE
NOSS 2-1 (D) 4.5 19:46:14 10° NW 19:50:49 62° SW 19:57:15 10° SSE
USA 276 2.7 19:49:54 10° W 19:52:53 55° N 19:55:53 10° ENE
H-2A R/B 2.3 19:50:31 10° NNE 19:54:59 80° WNW 19:59:29 10° SSW
USA 245 3.6 19:53:30 10° SE 19:57:26 45° ENE 20:00:37 10° N
Cosmos 1536 Rocket 3.9 19:53:24 10° SSE 19:57:33 47° E 20:01:44 10° NNE
Cosmos 1455 2.2 19:54:01 10° N 19:57:51 85° W 20:01:40 10° S
CARTOSAT-1 3.6 19:57:35 10° SSE 20:01:53 71° ENE 20:06:11 10° N
ARIANE 5 R/B 4.3 19:58:53 10° ESE 20:02:14 21° ENE 20:05:35 10° NNE
Cosmos 1975 Rocket 4.4 19:59:28 10° SSW 20:03:42 43° WNW 20:07:56 10° N
SL-24 R/B 4.4 20:00:01 10° SSE 20:04:24 87° WSW 20:09:27 10° NNW
Cosmos 1741 Rocket 4.2 19:59:11 10° NNW 20:04:31 68° ENE 20:09:49 10° SSE
ATLAS 5 CENTAUR R/B 4.1 19:53:13 10° NW 20:05:50 47° WSW 20:09:51 10° S
SPOT 3 Rocket 3.6 20:06:11 10° SSE 20:11:22 78° ENE 20:16:36 10° NNW
Ariane Rocket 3.3 20:07:54 10° S 20:12:58 69° WSW 20:18:04 10° NNW
Cosmos 2074 Rocket 4.1 20:06:44 10° N 20:13:00 69° E 20:19:13 10° SSE
Cosmos 1544 Rocket 4.4 20:15:31 10° NNW 20:19:42 49° W 20:23:54 10° SSW
Cosmos 1656 4.0 20:17:11 10° NNW 20:22:36 61° WSW 20:28:02 10° S
Nadezhda 1 Rocket 4.2 20:19:20 10° SSE 20:25:10 50° E 20:31:00 10° NNE
USA 234 4.5 20:22:37 10° ENE 20:28:38 41° N 20:34:40 10° WNW
ATLAS 2AS CENTAUR R/B 3.8 20:22:48 10° NW 20:29:05 36° WSW 20:35:00 10° S
Meteor 2-1 Rocket 4.4 20:25:08 10° N 20:30:34 57° ENE 20:35:18 14° SSE
Cosmos 1850 Rocket 4.2 20:26:16 10° NNW 20:31:28 71° WSW 20:36:19 11° SSE
SL-16 R/B 4.3 20:29:42 10° N 20:33:33 18° NE 20:37:22 10° E
Cosmos 1980 Rocket 2.8 20:28:54 10° NNW 20:34:25 47° NE 20:39:07 14° SE
Cosmos 1697 Rocket 2.7 20:29:07 10° NNW 20:34:47 84° ENE 20:39:32 15° SSE
Cosmos 2344 4.4 20:28:19 10° NW 20:37:05 75° NE 20:48:13 13° SE
SL-8 R/B 4.0 20:32:59 10° WNW 20:37:41 54° SSW 20:41:23 16° SE
Cosmos 2369 4.1 20:32:16 10° NNW 20:37:55 55° ENE 20:42:35 15° SE
Cosmos 1331 Rocket 4.0 20:32:55 10° SSW 20:38:11 72° ESE 20:43:30 10° NNE
Spot 2 Rocket 3.5 20:38:47 12° SSE 20:43:27 84° WSW 20:48:35 10° NNW
COSMOS 2406 3.4 20:37:57 10° S 20:43:32 53° ESE 20:49:07 10° NE
Cosmos 2154 Rocket 4.0 20:38:22 10° N 20:44:37 83° E 20:50:11 13° S
X-37B 1.0 20:43:17 10° W 20:45:55 36° SSW 20:47:01 25° SSE
ATLAS 5 CENTAUR R/B 3.0 20:48:00 15° ESE 20:48:00 15° ESE 20:50:11 10° ENE
CZ-2C R/B 3.7 20:43:26 10° NNE 20:47:58 61° ESE 20:51:58 13° S
SPOT 5 2.8 20:49:45 14° S 20:53:29 66° WSW 20:57:48 10° NNW
Cosmos 1703 4.1 20:52:29 10° SSW 20:56:13 49° WNW 20:59:59 10° N
Cosmos 2084 Rocket 3.2 20:53:37 10° NW 20:57:32 86° SW 21:00:03 22° SE
RESURS DK-1 3.6 20:54:29 10° NW 20:58:13 33° WSW 21:01:19 13° S
Cosmos 1833 Rocket 2.9 20:54:04 10° SSW 20:59:40 74° WNW 21:05:20 10° NNE
Terra 1.8 20:56:28 17° SSE 21:00:07 85° WSW 21:04:56 10° NNW
CZ-4B R/B 4.1 20:59:58 10° NNW 21:01:33 14° WNW 21:03:08 10° W
ASTEX 1 4.1 20:58:47 10° NNE 21:03:30 40° E 21:06:20 21° SSE
SL-8 Rocket 4.4 20:58:11 10° N 21:04:13 48° ENE 21:08:23 20° SE
Helios 1A Rocket 3.5 21:01:06 15° S 21:04:17 53° W 21:08:19 10° NNW
Cosmos 1110 Rocket 4.5 21:00:09 10° SSW 21:05:22 65° WNW 21:10:41 10° NNE
ERS-1 Rocket 3.3 21:02:33 15° S 21:06:43 61° WSW 21:11:43 10° NNW
FALCON 9 DEB 4.0 21:03:50 10° NW 21:06:59 43° NNE 21:09:45 12° E
Cosmos 1892 Rocket 3.6 21:04:14 20° S 21:07:12 61° E 21:11:31 10° NNE
Resurs 01 Rocket 4.2 21:05:27 10° WSW 21:07:43 14° W 21:09:59 10° WNW
Cosmos 1302 Rocket 4.0 21:03:51 12° S 21:08:37 65° ESE 21:13:46 10° NNE
Cosmos 2322 Rocket 4.0 21:04:57 10° N 21:09:22 22° NE 21:13:46 10° E
Cosmos 2228 4.0 21:07:46 10° NNW 21:11:45 41° W 21:15:15 13° SSW
Cosmos 2058 Rocket 3.3 21:08:28 10° N 21:12:52 59° E 21:15:19 25° SSE
Cosmos 1825 3.4 21:15:03 23° ESE 21:16:04 26° E 21:19:13 10° NNE
Cosmos 1408 2.5 21:16:15 30° SSE 21:17:41 57° E 21:21:05 10° NNE
Meteor 1-11 4.2 21:15:39 19° S 21:19:44 67° E 21:25:16 10° NNE
Cosmos 2278 4.0 21:15:00 10° NNW 21:20:42 62° ENE 21:24:23 22° SE
Cosmos 2366 rocket 4.3 21:17:05 10° N 21:23:20 57° ENE 21:27:20 23° SSE
Cosmos 968 Rocket 3.5 21:18:12 10° NNW 21:23:26 81° WSW 21:26:36 24° SSE
Cosmos 1328 4.4 21:22:06 14° SSW 21:25:28 55° WNW 21:29:25 10° N
Cosmos 2218 Rocket 4.3 21:20:29 10° N 21:26:51 60° ENE 21:30:50 23° SSE
USA 276 2.7 21:25:54 10° WNW 21:28:53 54° N 21:31:02 17° E
SJ 16-02 3.2 21:29:14 10° N 21:32:41 22° NE 21:35:23 13° E
Cosmos 2082 Rocket 2.2 21:27:43 10° SSW 21:33:26 88° ESE 21:39:11 10° NNE
Cosmos 1867 3.6 21:27:57 10° NW 21:33:27 77° WSW 21:36:30 27° SSE
BREEZE-M DEB (TANK) 4.4 21:17:11 10° SW 21:33:32 64° SSE 21:37:55 10° ENE
USA 267 3.4 21:30:04 10° ENE 21:36:23 49° SE 21:42:41 10° SSW
ARIANE 5 R/B 3.3 21:35:43 21° SSW 21:38:23 47° W 21:42:41 10° NNW
GP-B 3.0 21:36:54 10° N 21:41:21 87° E 21:43:34 30° S
Cosmos 1959 Rocket 4.5 21:36:08 10° N 21:42:16 74° E 21:45:49 26° SSE
Cosmos 2341 Rocket 4.1 21:36:37 10° NNW 21:42:57 78° W 21:47:01 23° S
SAR-Lupe-4 3.4 21:41:49 10° NNE 21:45:25 86° ESE 21:46:46 36° S
Cosmos 2360 Rocket 3.9 21:40:44 10° N 21:45:28 26° NE 21:50:10 10° ESE
Spot 4 4.3 21:48:33 27° SE 21:50:49 50° ENE 21:55:28 10° N
Cosmos 1606 4.4 21:49:02 10° NNE 21:52:10 23° ENE 21:53:24 20° E
Cosmos 864 Rocket 4.4 21:46:03 10° N 21:52:17 87° E 21:55:52 27° S
Okean 1-7 Rocket 3.5 21:58:40 33° S 22:00:39 88° ESE 22:05:11 10° N
Cosmos 1892 3.5 22:02:06 24° SW 22:04:01 45° WNW 22:07:41 10° N
Cosmos 1758 Rocket 4.0 22:08:36 37° SE 22:09:47 47° E 22:14:01 10° NNE
USA 234 3.5 22:04:42 10° ESE 22:11:07 71° NNE 22:17:39 10° NW
Cosmos 2181 Rocket 4.1 22:07:21 22° SSW 22:11:26 74° W 22:17:43 10° N
Cosmos 1633 2.5 22:12:09 54° SE 22:12:33 59° E 22:15:59 10° NNE
Cosmos 1980 Rocket 3.4 22:13:16 10° NW 22:18:12 31° WSW 22:20:52 21° SSW
Cosmos 1821 Rocket 4.0 22:12:05 10° N 22:18:21 71° E 22:21:23 31° SSE
SL-16 R/B 2.2 22:12:54 10° NNW 22:18:37 79° ENE 22:21:23 32° SE
Cosmos 1992 Rocket 4.1 22:15:18 22° SSW 22:18:44 73° WNW 22:24:00 10° NNE
Cosmos 1486 Rocket 4.2 22:13:47 10° NNW 22:18:56 61° WSW 22:21:05 34° S
Cosmos 1812 Rocket 3.5 22:16:13 10° N 22:20:42 84° E 22:22:08 43° SSE
SL-4 R/B 3.7 22:23:23 16° E 22:23:23 16° E 22:24:25 10° E
Cosmos 2219 Rocket 4.1 22:18:00 10° N 22:22:31 24° NE 22:27:01 10° E
Cosmos-2242 2.9 22:25:47 10° N 22:30:02 83° E 22:31:12 48° SSE
ATLAS 5 CENTAUR R/B 1.8 22:29:23 20° WSW 22:31:49 58° NW 22:36:00 10° NE
Cosmos 1602 Rocket 3.6 22:32:11 40° SSW 22:33:39 73° W 22:38:00 10° N
Cosmos 1869 4.3 22:30:29 10° NNW 22:34:04 35° W 22:35:09 29° SW
ERS-2 3.1 22:34:26 10° NE 22:37:39 31° E 22:37:40 31° E
Cosmos 1238 4.4 22:38:03 60° E 22:38:03 60° E 22:41:24 10° NNE
Terra 4.4 22:37:33 10° W 22:38:36 11° W 22:39:41 10° WNW
Nadezhda 3 Rocket 3.9 22:36:22 34° S 22:39:15 76° E 22:45:25 10° NNE
ALOS 2 2.5 22:39:48 46° S 22:41:05 87° W 22:45:30 10° NNW
FALCON 9 DEB 4.2 22:40:09 10° WNW 22:42:17 31° W 22:42:17 31° W
Cosmos 1354 Rocket 4.0 22:41:55 10° NNW 22:47:12 71° WSW 22:49:06 40° S
BREEZE-M DEB (TANK) 4.0 22:45:47 10° WNW 22:49:22 89° N 23:04:43 10° ESE
ADEOS Rocket 3.5 22:45:43 31° S 22:49:43 83° WSW 22:57:32 10° NNW
Cosmos 1825 4.0 22:49:40 18° WSW 22:51:22 24° WNW 22:54:28 10° NNW
Cosmos 2322 Rocket 2.1 22:48:23 10° NNW 22:54:05 79° WSW 22:56:24 38° SSE
Cosmos 1503 Rocket 4.5 22:51:50 10° NNW 22:56:55 48° WSW 22:58:35 35° SSW
ISS -1.0 23:01:43 10° E 23:01:43 10° E 23:01:43 10° E
Cosmos 1953 Rocket 3.8 22:58:43 45° SE 22:59:45 59° E 23:04:06 10° NNE
SL-27 R/B 4.3 23:00:48 18° E 23:00:48 18° E 23:02:38 10° NE
PSLV R/B 4.3 22:57:13 10° NNE 23:01:49 47° E 23:03:01 38° SE
USA 276 4.0 23:01:42 10° WNW 23:02:50 20° W 23:02:50 20° W
Cosmos 1777 Rocket 4.0 22:59:45 10° NNW 23:05:03 75° WSW 23:06:53 41° S
Cosmos 2333 Rocket 2.7 23:03:40 10° NNW 23:09:23 59° ENE 23:12:52 24° SE
Cosmos 1825 Rocket 3.6 23:08:18 47° SSW 23:09:27 72° W 23:13:48 10° N
CENTAUR R/B 3.9 23:09:34 18° SE 23:11:00 20° ESE 23:15:33 10° ENE
SJ 16-02 1.8 23:07:13 10° NNW 23:11:29 47° WSW 23:12:19 41° SW
Gbstr 26 Del rocket 3.1 23:11:09 49° SSW 23:12:04 61° SE 23:17:11 10° ENE
COSMOS 2487 4.0 23:13:59 21° E 23:13:59 21° E 23:15:48 10° NE
Cosmos 1340 Rocket 2.6 23:13:04 62° S 23:13:41 85° E 23:17:40 10° NNE
H-2A R/B 4.4 23:15:23 10° N 23:19:21 41° WNW 23:20:55 29° WSW
USA 267 3.6 23:13:05 10° NE 23:19:33 65° NNW 23:26:00 10° WSW
Celestis-02/Orion 38 4.5 23:19:53 40° SSE 23:21:48 78° WSW 23:26:54 10° NNW
Meteor 2-3 Rocket 4.3 23:20:57 30° SE 23:23:07 44° E 23:28:23 10° NNE
Cosmos 1812 4.4 23:22:07 10° NNE 23:25:19 25° ENE 23:26:44 20° ESE
Cosmos 2221 2.5 23:22:48 10° N 23:27:11 83° E 23:28:17 50° SSE
Cosmos 2058 3.5 23:26:08 37° WSW 23:27:17 48° WNW 23:31:22 10° N
Cosmos 1606 3.9 23:24:23 10° NNW 23:27:45 29° W 23:28:16 28° WSW
Cosmos 1842 Rocket 3.7 23:25:24 10° N 23:29:53 67° E 23:31:14 43° SE
Cosmos 2360 Rocket 2.2 23:24:19 10° NNW 23:29:56 65° WSW 23:32:00 39° S
Cosmos 1934 Rocket 4.0 23:24:25 10° NNW 23:30:28 68° W 23:33:06 35° SSW
Nimbus 7 Rocket 4.4 23:27:55 10° NNE 23:33:54 88° ESE 23:36:36 35° SSW
Cosmos 2333 4.2 23:28:42 10° NNW 23:34:31 88° ENE 23:37:21 32° SSE
Resurs 1-4 Rocket 4.2 23:32:03 10° NE 23:35:14 16° E 23:38:01 11° ESE
Cosmos 1782 3.6 23:32:14 10° N 23:36:03 42° ENE 23:37:13 33° ESE
Cosmos 1833 4.1 23:39:57 35° SSW 23:42:26 84° WNW 23:48:04 10° NNE
Cosmos 44 3.0 23:41:21 43° SW 23:42:50 89° NW 23:47:20 10° NE
CZ-2D R/B 4.1 23:40:28 10° NE 23:43:56 18° E 23:46:39 12° SE
Cosmos 2237 Rocket 4.0 23:49:32 10° NNW 23:54:29 30° NE 23:59:23 10° ESE
